Terminal Aerodrome Forecast
Issued by NWS

Home | Current Version | Previous Version | Graphics & Text | Print | Product List | Glossary On
Versions: 1 2 3 4 5 6 7 8 9 10 11 12
000
FTUS43 KIWX 270500
TAFSBN
TAF
KSBN 270538Z 2706/2806 34010KT P6SM SCT025 BKN050
     FM271500 34014G24KT P6SM BKN035
     FM272300 01005KT P6SM SCT250=

USA.gov is the U.S. government's official web portal to all federal, state and local government web resources and services.